WESTFORD NEEDLES, 2362

Orbit data source: Space-Track

WESTFORD NEEDLES, 2362 is space debris originally from a launch on Thu, 09 May 1963 UTC launched from the Air Force Western Test Range (AFWTR). Debris objects in space refer to the collection of defunct objects orbiting the Earth. Examples of debris include non-operational satellites, rocket bodies, and fragments generated from explosions, collisions, or faulty payload assembly.

Loading next visibility...
Identifier
2362, 1963-014M
Orbit
Active
Country
Flag of USUS
Related business
Manufacturer
Unknown
Mission
Spacecraft
Bus & Motor
Unknown
Mass
Unknown
Launch date (UTC)
1963-05-09 (63 years ago)
Launch vehicle
Unknown
Launch site
Air Force Western Test Range (AFWTR)
Object type
Payload
Rocket body
Debris
Shape & HBR
Unknown shape, 0.3 m
Radar Cross Section
Medium (>0.1 m² and <1 m²)

Expand to show TLE details & history
Last TLE update: 12 hours ago

TLE from 12 hours ago
0 WESTFORD NEEDLES
1 02362U 63014M   26070.68542405  .00004924  00000-0  43372-1 0  9995
2 02362  85.1569 337.3490 2557938 144.1810 236.1308  8.85812742998123
Epoch: 2026-03-11T16:27Z
TLE epoch observation values (Epoch: 2026-03-11T16:27:00.637Z)
Latitude
-0.00002°
Longitude
-78.74977°
Altitude
5,255.752 km
Speed
5.305 km/s
True Right ascension
22h 29m 23s
True Declination
0° 00' 00"
Sunlit
Object was in daylight at epoch
Visualization orbit readout
Latitude
Unknown
Longitude
Unknown
Altitude
Unknown
Speed
Unknown
Apparent Right ascension
Unknown
Apparent Declination
Unknown
Sunlit
N/A
Visualization observer readout
Local Sidereal Time
09:15:45
Azimuth
Unknown
Elevation
Unknown
Doppler factor
Unknown
Orbital elements
Apogee altitude
6,009.432 km
Perigee altitude
962.961 km
Semi-major axis
9,864.334 km
Eccentricity
0.25579
Inclination
85.1569°
RAAN
337.349°
Arg. of periapsis
144.181°
True anomaly
215.90472°
Mean anomaly
236.1308°
Eccentric anomaly
225.65052°
Mean motion
2.21535 °/min
Orbital period
162.5 mins
BSTAR
0.043372
Loading maneuver chart data...
Computing Atmospheric mass density...

Documentation

Showing up to 5 results
|